Location: Bauerbach
(50.4985°N, 10.3912°E)
Time: 06:29:57
(UTC+00:00)

Cosmos 381 Rocket - Pass Details

Date: 13 January 2026
Orbit: 956 x 994 km, 74.0° (Epoch: 17 February)

Event Time Altitude Azimuth Distance (km) Brightness Sun altitude
Exits shadow 04:34:47 13° 205° (SSW) 2,550 6.5 -24.6°
Maximum altitude 04:40:39 84° 294° (WNW) 1,006 4.4 -23.7°
Drops below altitude 10° 04:47:06 10° 24° (NNE) 2,763 7.1 -22.7°
Sets 04:49:40 0° 25° (NNE) 3,712 7.8 -22.2°
